NOAA 16 DEB, 42361

Orbit data source: Space-Track

NOAA 16 DEB, 42361 is space debris in SSO originally from a launch on Thu, 21 Sep 2000 UTC launched from the Air Force Western Test Range (AFWTR). Debris objects in space refer to the collection of defunct objects orbiting the Earth. Examples of debris include non-operational satellites, rocket bodies, and fragments generated from explosions, collisions, or faulty payload assembly.

Loading next visibility...
Identifier
42361, 2000-055RD
Orbit
SSO
Country
Flag of USUS
Related business
Manufacturer
Unknown
Mission
Spacecraft
Bus & Motor
Unknown
Mass
Unknown
Launch date (UTC)
2000-09-21 (25 years ago)
Launch vehicle
Unknown
Launch site
Air Force Western Test Range (AFWTR)
Object type
Payload
Rocket body
Debris
Shape & HBR
Unknown shape, 0.1 m
Radar Cross Section
Small (<0.1 m²)

Expand to show TLE details & history
Last TLE update: 3 days ago

TLE from 3 days ago
0 NOAA 16 DEB
1 42361U 00055RD  25290.78809701  .00120781  00000-0  18669-1 0  9994
2 42361  98.9332  49.1765 0032815 169.4952 190.6945 14.72215417502497
Epoch: 2025-10-17T18:54Z
TLE epoch observation values (Epoch: 2025-10-17T18:54:51.581Z)
Latitude
-0.00005°
Longitude
98.93314°
Altitude
679.665 km
Speed
7.505 km/s
True Right ascension
03h 16m 42s
True Declination
0° 00' 00"
Sunlit
Object was in full shadow at epoch
Visualization orbit readout
Latitude
Unknown
Longitude
Unknown
Altitude
Unknown
Speed
Unknown
Apparent Right ascension
Unknown
Apparent Declination
Unknown
Sunlit
N/A
Visualization observer readout
Local Sidereal Time
11:40:51
Azimuth
Unknown
Elevation
Unknown
Doppler factor
Unknown
Orbital elements
Apogee altitude
674.171 km
Perigee altitude
628.038 km
Semi-major axis
7,029.242 km
Eccentricity
0.00328
Inclination
98.9332°
RAAN
49.1765°
Arg. of periapsis
169.4952°
True anomaly
190.625°
Mean anomaly
190.6945°
Eccentric anomaly
190.65972°
Mean motion
3.68282 °/min
Orbital period
97.75 mins
BSTAR
0.018669
Loading maneuver chart data...
Computing Atmospheric mass density...
Loading historical data...
Loading historical data...
Loading historical data...
Loading historical data...
Loading historical data...
Loading historical data...
Loading historical data...

Documentation

Showing up to 5 results
|